Noordam — PHET — position and weather

sailwx.info

Track history (hours):
 
Tides and Currents Weather Stations Pressure Air Temp Water Temp Dewpoint Dewpoint Depression Visibility Wind Speed Wind Dir Waves Ship Positions

Noordam (Netherlands)

Ship's website: http://www.hollandamerica.com/cruiseships/Noordam

Last reported at 2014-Oct-23 06:07 UTC. Time now 2014-Oct-23 15:09 UTC.
Position N 36°09' W 005°22'.

Type: Passenger vessel. MMSI: 246028000.

Date/timePositionNaut miles runAvg speedWind from/ knotsBaromVisibWave heightAir tempDewpointWater temp
2014-Oct-23 06:07N 36°09' W 005°22'3 5.0
2014-Oct-23 05:31N 36°06' W 005°22'5 5.2
2014-Oct-23 04:34N 36°07' W 005°16'7 6.6
2014-Oct-23 03:33N 36°10' W 005°09'200 5.8
2014-Oct-21 17:00N 37°12' W 001°12'1515.9 280 / 81022.010.8 23.119.923.3
2014-Oct-21 16:04N 37°26' W 001°08'813.2
2014-Oct-21 15:28N 37°32' W 001°01'2 0.2
2014-Oct-21 05:32N 37°34' W 000°59'7 7.1
2014-Oct-21 04:33N 37°31' W 000°51'1111.4
2014-Oct-21 03:33N 37°33' W 000°37'1111.0
2014-Oct-21 02:33N 37°41' W 000°28'1110.9
2014-Oct-21 01:33N 37°50' W 000°21'1111.1
2014-Oct-21 00:33N 37°60' W 000°14'1111.2
2014-Oct-20 23:33N 38°09' W 000°06'1211.6
2014-Oct-20 22:33N 38°19' E 000°02'1111.1
2014-Oct-20 21:33N 38°28' E 000°10'2110.7
2014-Oct-20 19:33N 38°48' E 000°21'1311.8
2014-Oct-20 18:26N 38°58' E 000°10'4 8.7
2014-Oct-20 18:00N 39°00' E 000°06'914.4 140 / 141020.010.8 20.919.222.4
2014-Oct-20 17:22N 39°08' E 000°01'2 5.7
2014-Oct-20 17:00N 39°06' E 000°00'2514.7 140 / 141019.010.8 20.818.222.5
2014-Oct-20 15:17N 39°26' W 000°19'1 0.1
2014-Oct-20 07:24N 39°27' W 000°19'0 0.2
2014-Oct-20 05:34N 39°27' W 000°19'5 5.5
2014-Oct-20 04:34N 39°29' W 000°12'9211.4
2014-Oct-19 20:30N 40°32' E 001°14'5 5.3
2014-Oct-19 19:33N 40°36' E 001°19'1411.7
2014-Oct-19 18:22N 40°46' E 001°31'1212.2
2014-Oct-19 17:22N 40°55' E 001°43'1211.8
2014-Oct-19 16:22N 41°03' E 001°53'1212.2
2014-Oct-19 15:24N 41°11' E 002°04'910.4
2014-Oct-19 14:33N 41°19' E 002°10'3 0.3
2014-Oct-19 05:00N 41°18' E 002°06'5 0.4 070 / 21014.010.8 19.618.420.6
2014-Oct-18 16:28N 41°21' E 002°11'0 0.0
2014-Oct-18 15:32N 41°21' E 002°11'0 0.0
2014-Oct-18 14:32N 41°21' E 002°11'0 0.0
2014-Oct-18 13:32N 41°21' E 002°11'0 0.0
2014-Oct-18 12:32N 41°21' E 002°11'0 0.0
2014-Oct-18 11:28N 41°21' E 002°11'0 0.0
2014-Oct-18 10:25N 41°21' E 002°11'0 0.0
2014-Oct-18 08:16N 41°21' E 002°11'0 0.0
2014-Oct-18 07:28N 41°21' E 002°11'0 0.0
2014-Oct-18 06:22N 41°21' E 002°11'0 0.0
2014-Oct-18 05:22N 41°21' E 002°11'2 2.2
2014-Oct-18 04:33N 41°20' E 002°10'6 6.0
2014-Oct-18 03:33N 41°16' E 002°16'7 6.8
2014-Oct-18 02:33N 41°17' E 002°25'7 6.9
2014-Oct-18 01:33N 41°18' E 002°34'7 7.0
2014-Oct-18 00:33N 41°20' E 002°43'7 7.3
2014-Oct-17 23:33N 41°21' E 002°53'7 7.1
2014-Oct-17 22:33N 41°22' E 003°02'7 7.0
2014-Oct-17 21:33N 41°24' E 003°11'7 7.0
2014-Oct-17 20:33N 41°25' E 003°20'7 7.0
2014-Oct-17 19:33N 41°26' E 003°30'8 7.7
2014-Oct-17 18:33N 41°28' E 003°39'7 7.4
2014-Oct-17 17:33N 41°29' E 003°49'8 7.6
2014-Oct-17 16:33N 41°31' E 003°59'8 7.5
2014-Oct-17 15:33N 41°32' E 004°09'8 7.8
2014-Oct-17 14:33N 41°34' E 004°19'8 7.7
2014-Oct-17 13:31N 41°35' E 004°30'7 7.5
2014-Oct-17 12:32N 41°37' E 004°39'8 7.8
2014-Oct-17 11:33N 41°38' E 004°49'11 8.3
2014-Oct-17 10:13N 41°40' E 005°04'5 6.4
2014-Oct-17 09:30N 41°43' E 005°09'8 7.4
2014-Oct-17 08:25N 41°51' E 005°09'7 7.9
2014-Oct-17 07:33N 41°58' E 005°09'10 8.0
2014-Oct-17 06:15N 42°08' E 005°09'39 7.8
2014-Oct-17 01:16N 42°47' E 005°09'6 8.2
2014-Oct-17 00:33N 42°53' E 005°09'9 8.7
2014-Oct-16 23:33N 43°02' E 005°09'9 8.6
2014-Oct-16 22:33N 43°10' E 005°09'8 7.5
2014-Oct-16 21:33N 43°18' E 005°11'7 2.8
2014-Oct-16 19:06N 43°21' E 005°20'0 0.0
2014-Oct-16 10:09N 43°21' E 005°20'0 0.1
2014-Oct-16 05:33N 43°21' E 005°20'8 8.1
2014-Oct-16 04:33N 43°16' E 005°11'10 9.7
2014-Oct-16 03:33N 43°07' E 005°15'19 9.6
2014-Oct-16 01:33N 42°57' E 005°37'1010.3
2014-Oct-16 00:33N 42°54' E 005°51'1110.8
2014-Oct-15 23:32N 42°51' E 006°05'1611.8
2014-Oct-15 22:12N 42°50' E 006°27'812.0
2014-Oct-15 21:33N 42°56' E 006°34'1211.9
2014-Oct-15 20:33N 43°03' E 006°47'1211.5
2014-Oct-15 19:33N 43°13' E 006°56'1211.7
2014-Oct-15 18:33N 43°23' E 007°05'1211.7
2014-Oct-15 17:33N 43°32' E 007°14'1211.5
2014-Oct-15 16:33N 43°41' E 007°24'3 2.3
2014-Oct-15 15:09N 43°44' E 007°26'0 0.0
2014-Oct-15 14:33N 43°44' E 007°26'0 0.0
2014-Oct-15 13:27N 43°44' E 007°26'0 0.0
2014-Oct-15 12:28N 43°44' E 007°26'0 0.0
2014-Oct-15 11:29N 43°44' E 007°26'0 0.0
2014-Oct-15 10:25N 43°44' E 007°26'0 0.0
2014-Oct-15 09:31N 43°44' E 007°26'0 0.0
2014-Oct-15 08:33N 43°44' E 007°26'0 0.0
2014-Oct-15 07:33N 43°44' E 007°26'0 0.0
2014-Oct-15 06:30N 43°44' E 007°26'1 0.6
2014-Oct-15 05:33N 43°44' E 007°27'7 7.1
2014-Oct-15 04:33N 43°40' E 007°34'8 7.8
2014-Oct-15 03:33N 43°34' E 007°42'8 7.7
2014-Oct-15 02:33N 43°32' E 007°52'8 7.6
2014-Oct-15 01:33N 43°31' E 008°03'9 7.4
2014-Oct-15 00:16N 43°28' E 008°15'5 7.5
2014-Oct-14 23:33N 43°27' E 008°23'7 7.0
2014-Oct-14 22:33N 43°24' E 008°31'5 5.2
2014-Oct-14 21:33N 43°19' E 008°29'6 5.2
2014-Oct-14 20:30N 43°14' E 008°27'14 9.5
2014-Oct-14 19:00N 43°00' E 008°24'1312.8 040 / 251007.010.8 0.521.318.923.4
2014-Oct-14 18:00N 42°48' E 008°30'16 6.6 040 / 251007.010.8 0.521.018.623.5
2014-Oct-14 15:32N 42°36' E 008°45'38 2.5
2014-Oct-14 00:33N 43°06' E 009°17'8 7.7
2014-Oct-13 23:33N 43°11' E 009°25'8 7.8
2014-Oct-13 22:33N 43°15' E 009°34'8 7.5
2014-Oct-13 21:33N 43°13' E 009°44'8 8.0
2014-Oct-13 20:33N 43°14' E 009°55'6 9.7
2014-Oct-13 20:00N 43°18' E 010°00'511.0 290 / 211012.010.8 1.522.019.022.9
2014-Oct-13 19:33N 43°22' E 010°03'9 8.9
2014-Oct-13 18:33N 43°29' E 010°11'6 6.4
2014-Oct-13 17:33N 43°33' E 010°18'0 0.0
2014-Oct-13 16:31N 43°33' E 010°18'0 0.0
2014-Oct-13 15:31N 43°33' E 010°18'0 0.0
2014-Oct-13 14:33N 43°33' E 010°18'0 0.0
2014-Oct-13 13:30N 43°33' E 010°18'0 0.0
2014-Oct-13 12:33N 43°33' E 010°18'0 0.0
2014-Oct-13 11:33N 43°33' E 010°18'0 0.0
2014-Oct-13 10:33N 43°33' E 010°18'0 0.0
2014-Oct-13 09:32N 43°33' E 010°18'0 0.0
2014-Oct-13 08:31N 43°33' E 010°18'  
Track history (hours):
 
Tides and Currents Weather Stations Pressure Air Temp Water Temp Dewpoint Dewpoint Depression Visibility Wind Speed Wind Dir Waves Ship Positions

Noordam (Netherlands)

Ship's website: http://www.hollandamerica.com/cruiseships/Noordam

Last reported at 2014-Oct-23 06:07 UTC. Time now 2014-Oct-23 15:09 UTC.
Position N 36°09' W 005°22'.

Type: Passenger vessel. MMSI: 246028000.

Date/timePositionNaut miles runAvg speedWind from/ knotsBaromVisibWave heightAir tempDewpointWater temp
2014-Oct-23 06:07N 36°09' W 005°22'3 5.0
2014-Oct-23 05:31N 36°06' W 005°22'5 5.2
2014-Oct-23 04:34N 36°07' W 005°16'7 6.6
2014-Oct-23 03:33N 36°10' W 005°09'200 5.8
2014-Oct-21 17:00N 37°12' W 001°12'1515.9 280 / 81022.010.8 23.119.923.3
2014-Oct-21 16:04N 37°26' W 001°08'813.2
2014-Oct-21 15:28N 37°32' W 001°01'2 0.2
2014-Oct-21 05:32N 37°34' W 000°59'7 7.1
2014-Oct-21 04:33N 37°31' W 000°51'1111.4
2014-Oct-21 03:33N 37°33' W 000°37'1111.0
2014-Oct-21 02:33N 37°41' W 000°28'1110.9
2014-Oct-21 01:33N 37°50' W 000°21'1111.1
2014-Oct-21 00:33N 37°60' W 000°14'1111.2
2014-Oct-20 23:33N 38°09' W 000°06'1211.6
2014-Oct-20 22:33N 38°19' E 000°02'1111.1
2014-Oct-20 21:33N 38°28' E 000°10'2110.7
2014-Oct-20 19:33N 38°48' E 000°21'1311.8
2014-Oct-20 18:26N 38°58' E 000°10'4 8.7
2014-Oct-20 18:00N 39°00' E 000°06'914.4 140 / 141020.010.8 20.919.222.4
2014-Oct-20 17:22N 39°08' E 000°01'2 5.7
2014-Oct-20 17:00N 39°06' E 000°00'2514.7 140 / 141019.010.8 20.818.222.5
2014-Oct-20 15:17N 39°26' W 000°19'1 0.1
2014-Oct-20 07:24N 39°27' W 000°19'0 0.2
2014-Oct-20 05:34N 39°27' W 000°19'5 5.5
2014-Oct-20 04:34N 39°29' W 000°12'9211.4
2014-Oct-19 20:30N 40°32' E 001°14'5 5.3
2014-Oct-19 19:33N 40°36' E 001°19'1411.7
2014-Oct-19 18:22N 40°46' E 001°31'1212.2
2014-Oct-19 17:22N 40°55' E 001°43'1211.8
2014-Oct-19 16:22N 41°03' E 001°53'1212.2
2014-Oct-19 15:24N 41°11' E 002°04'910.4
2014-Oct-19 14:33N 41°19' E 002°10'3 0.3
2014-Oct-19 05:00N 41°18' E 002°06'5 0.4 070 / 21014.010.8 19.618.420.6
2014-Oct-18 16:28N 41°21' E 002°11'0 0.0
2014-Oct-18 15:32N 41°21' E 002°11'0 0.0
2014-Oct-18 14:32N 41°21' E 002°11'0 0.0
2014-Oct-18 13:32N 41°21' E 002°11'0 0.0
2014-Oct-18 12:32N 41°21' E 002°11'0 0.0
2014-Oct-18 11:28N 41°21' E 002°11'0 0.0
2014-Oct-18 10:25N 41°21' E 002°11'0 0.0
2014-Oct-18 08:16N 41°21' E 002°11'0 0.0
2014-Oct-18 07:28N 41°21' E 002°11'0 0.0
2014-Oct-18 06:22N 41°21' E 002°11'0 0.0
2014-Oct-18 05:22N 41°21' E 002°11'2 2.2
2014-Oct-18 04:33N 41°20' E 002°10'6 6.0
2014-Oct-18 03:33N 41°16' E 002°16'7 6.8
2014-Oct-18 02:33N 41°17' E 002°25'7 6.9
2014-Oct-18 01:33N 41°18' E 002°34'7 7.0
2014-Oct-18 00:33N 41°20' E 002°43'7 7.3
2014-Oct-17 23:33N 41°21' E 002°53'7 7.1
2014-Oct-17 22:33N 41°22' E 003°02'7 7.0
2014-Oct-17 21:33N 41°24' E 003°11'7 7.0
2014-Oct-17 20:33N 41°25' E 003°20'7 7.0
2014-Oct-17 19:33N 41°26' E 003°30'8 7.7
2014-Oct-17 18:33N 41°28' E 003°39'7 7.4
2014-Oct-17 17:33N 41°29' E 003°49'8 7.6
2014-Oct-17 16:33N 41°31' E 003°59'8 7.5
2014-Oct-17 15:33N 41°32' E 004°09'8 7.8
2014-Oct-17 14:33N 41°34' E 004°19'8 7.7
2014-Oct-17 13:31N 41°35' E 004°30'7 7.5
2014-Oct-17 12:32N 41°37' E 004°39'8 7.8
2014-Oct-17 11:33N 41°38' E 004°49'11 8.3
2014-Oct-17 10:13N 41°40' E 005°04'5 6.4
2014-Oct-17 09:30N 41°43' E 005°09'8 7.4
2014-Oct-17 08:25N 41°51' E 005°09'7 7.9
2014-Oct-17 07:33N 41°58' E 005°09'10 8.0
2014-Oct-17 06:15N 42°08' E 005°09'39 7.8
2014-Oct-17 01:16N 42°47' E 005°09'6 8.2
2014-Oct-17 00:33N 42°53' E 005°09'9 8.7
2014-Oct-16 23:33N 43°02' E 005°09'9 8.6
2014-Oct-16 22:33N 43°10' E 005°09'8 7.5
2014-Oct-16 21:33N 43°18' E 005°11'7 2.8
2014-Oct-16 19:06N 43°21' E 005°20'0 0.0
2014-Oct-16 10:09N 43°21' E 005°20'0 0.1
2014-Oct-16 05:33N 43°21' E 005°20'8 8.1
2014-Oct-16 04:33N 43°16' E 005°11'10 9.7
2014-Oct-16 03:33N 43°07' E 005°15'19 9.6
2014-Oct-16 01:33N 42°57' E 005°37'1010.3
2014-Oct-16 00:33N 42°54' E 005°51'1110.8
2014-Oct-15 23:32N 42°51' E 006°05'1611.8
2014-Oct-15 22:12N 42°50' E 006°27'812.0
2014-Oct-15 21:33N 42°56' E 006°34'1211.9
2014-Oct-15 20:33N 43°03' E 006°47'1211.5
2014-Oct-15 19:33N 43°13' E 006°56'1211.7
2014-Oct-15 18:33N 43°23' E 007°05'1211.7
2014-Oct-15 17:33N 43°32' E 007°14'1211.5
2014-Oct-15 16:33N 43°41' E 007°24'3 2.3
2014-Oct-15 15:09N 43°44' E 007°26'0 0.0
2014-Oct-15 14:33N 43°44' E 007°26'0 0.0
2014-Oct-15 13:27N 43°44' E 007°26'0 0.0
2014-Oct-15 12:28N 43°44' E 007°26'0 0.0
2014-Oct-15 11:29N 43°44' E 007°26'0 0.0
2014-Oct-15 10:25N 43°44' E 007°26'0 0.0
2014-Oct-15 09:31N 43°44' E 007°26'0 0.0
2014-Oct-15 08:33N 43°44' E 007°26'0 0.0
2014-Oct-15 07:33N 43°44' E 007°26'0 0.0
2014-Oct-15 06:30N 43°44' E 007°26'1 0.6
2014-Oct-15 05:33N 43°44' E 007°27'7 7.1
2014-Oct-15 04:33N 43°40' E 007°34'8 7.8
2014-Oct-15 03:33N 43°34' E 007°42'8 7.7
2014-Oct-15 02:33N 43°32' E 007°52'8 7.6
2014-Oct-15 01:33N 43°31' E 008°03'9 7.4
2014-Oct-15 00:16N 43°28' E 008°15'5 7.5
2014-Oct-14 23:33N 43°27' E 008°23'7 7.0
2014-Oct-14 22:33N 43°24' E 008°31'5 5.2
2014-Oct-14 21:33N 43°19' E 008°29'6 5.2
2014-Oct-14 20:30N 43°14' E 008°27'14 9.5
2014-Oct-14 19:00N 43°00' E 008°24'1312.8 040 / 251007.010.8 0.521.318.923.4
2014-Oct-14 18:00N 42°48' E 008°30'16 6.6 040 / 251007.010.8 0.521.018.623.5
2014-Oct-14 15:32N 42°36' E 008°45'38 2.5
2014-Oct-14 00:33N 43°06' E 009°17'8 7.7
2014-Oct-13 23:33N 43°11' E 009°25'8 7.8
2014-Oct-13 22:33N 43°15' E 009°34'8 7.5
2014-Oct-13 21:33N 43°13' E 009°44'8 8.0
2014-Oct-13 20:33N 43°14' E 009°55'6 9.7
2014-Oct-13 20:00N 43°18' E 010°00'511.0 290 / 211012.010.8 1.522.019.022.9
2014-Oct-13 19:33N 43°22' E 010°03'9 8.9
2014-Oct-13 18:33N 43°29' E 010°11'6 6.4
2014-Oct-13 17:33N 43°33' E 010°18'0 0.0
2014-Oct-13 16:31N 43°33' E 010°18'0 0.0
2014-Oct-13 15:31N 43°33' E 010°18'0 0.0
2014-Oct-13 14:33N 43°33' E 010°18'0 0.0
2014-Oct-13 13:30N 43°33' E 010°18'0 0.0
2014-Oct-13 12:33N 43°33' E 010°18'0 0.0
2014-Oct-13 11:33N 43°33' E 010°18'0 0.0
2014-Oct-13 10:33N 43°33' E 010°18'0 0.0
2014-Oct-13 09:32N 43°33' E 010°18'0 0.0
2014-Oct-13 08:31N 43°33' E 010°18'  

Dump ship's entire track history